Regional Weather Roundup
Issued by NWS

Home | Current Version | Previous Version | Text Only | Print | Product List | Glossary Off
Versions: 1 2 3 4 5 6 7 8 9 10 11 12 13 14 15 16 17 18 19 20 21 22 23 24 25 26 27 28 29 30 31 32 33 34 35 36 37 38 39 40 41 42 43 44 45 46 47 48 49 50

000
ASUS43 KMKX 210221
RWRWI

WISCONSIN REGIONAL WEATHER ROUNDUP
NATIONAL WEATHER SERVICE MILWAUKEE/SULLIVAN WI
900 PM CDT SUN AUG 20 2017

NOTE: "FAIR" INDICATES FEW OR NO CLOUDS BELOW 12,000 FEET WITH NO
SIGNIFICANT WEATHER AND/OR OBSTRUCTIONS TO VISIBILITY.

WIZ001-002-006>008-014>016-023>028-210300-
NORTHWEST WISCONSIN

CITY           SKY/WX    TMP DP  RH WIND       PRES   REMARKS
SUPERIOR ARPT    N/A     65  60  81 W5        30.00R
ASHLAND        PTCLDY    68  60  75 W6        29.98R
HAYWARD        CLOUDY    67  63  87 CALM      30.00R
SIREN          CLOUDY    68  63  85 NW5       30.01R
CUMBERLAND     CLOUDY    70  64  83 NW5       30.00R
RICE LAKE      CLOUDY    71  67  87 CALM      30.01R
CHETEK           N/A     73  69  88 CALM      29.99R
LADYSMITH      PTCLDY    72  69  90 CALM      30.01R
EAU CLAIRE     CLOUDY    74  68  81 S6        29.97R
MENOMONIE      MOCLDY    74  69  83 CALM      29.98R
NEW RICHMOND   CLEAR     68  62  81 N5        30.00R
OSCEOLA        CLEAR     71  63  76 CALM      30.02R
$$

WIZ003>005-009-010-017-018-210300-
NORTH CENTRAL WISCONSIN

CITY           SKY/WX    TMP DP  RH WIND       PRES   REMARKS
MANITOWISH WTR MOCLDY    68  68 100 CALM      30.00R
ARBOR VITAE    PTCLDY    72  68  87 CALM      30.00R
WOODRUFF       PTCLDY    72  68  87 CALM      30.00R
RHINELANDER    CLOUDY    71  69  93 SW3       30.01R
EAGLE RIVER    CLOUDY    70  68  93 SW5       30.00R
LAND O LAKES   CLOUDY    72  66  81 NW3       30.01R
PHILLIPS       CLOUDY    71  70  96 CALM      30.00R
TOMAHAWK         N/A     68  65  91 CALM      30.01R
MEDFORD        PTCLDY    71  65  83 SW5       30.01R
MERRILL        PTCLDY    70  66  88 CALM      30.01R
$$

WIZ029-030-035-036-043>047-210300-
CENTRAL WISCONSIN

CITY           SKY/WX    TMP DP  RH WIND       PRES   REMARKS
WAUSAU         PTCLDY    73  66  78 SW8       29.99R
MOSINEE        PTCLDY    72  66  83 SW6       30.02R
MARSHFIELD     MOCLDY    73  66  78 S7        30.01R
STEVENS POINT  CLEAR     70  64  83 SW5       30.02R
WAUPACA        PTCLDY    73  69  86 S3        30.01R
WAUTOMA        CLEAR     72  68  87 S6        30.02R
WISC RAPIDS    CLEAR     71  67  87 CALM      30.03R
CAMP DOUGLAS   PTCLDY    72  68  88 S6        30.02R
$$

WIZ011>013-019>022-031-037>040-048>050-210300-
NORTHEAST WISCONSIN

CITY           SKY/WX    TMP DP  RH WIND       PRES   REMARKS
ANTIGO         PTCLDY    69  65  88 SW6       30.01R
SHAWANO        PTCLDY    75  67  76 SW3       29.98R
OCONTO         MOCLDY    73  67  84 CALM      29.97R
STURGEON BAY   CLEAR     71  68  90 S8        29.99R
GREEN BAY      CLEAR     73  69  87 S7        29.99R
MANITOWOC      PTCLDY    73  68  84 SW3       30.02R
APPLETON       PTCLDY    72  63  73 SW10      30.00R
CLINTONVILLE   CLEAR     70  64  83 SW5       30.00R
OSHKOSH        CLEAR     72  67  84 SW6       30.01R
$$

WIZ032>034-041-042-053>061-210300-
SOUTHWEST WISCONSIN

CITY           SKY/WX    TMP DP  RH WIND       PRES   REMARKS
LA CROSSE      PTCLDY    80  67  64 S10       29.98R HX  82
SPARTA         CLEAR     69  66  92 CALM      30.02R
VIROQUA        CLEAR     69  66  90 CALM      30.04R
BOSCOBEL       CLEAR     69  65  86 CALM      30.01R
PRAIRIE DU CHI CLEAR     72  63  72 E5        30.00R
PLATTEVILLE    CLEAR     71  68  92 E5        30.03F
$$

WIZ056-057-062-063-064-067-068-210300-
SOUTH CENTRAL WISCONSIN

CITY           SKY/WX    TMP DP  RH WIND       PRES   REMARKS
REEDSBURG      CLEAR     70  69  98 S5        30.02R
BARABOO/DELLS  CLEAR     69  65  86 S3        30.03R
LONE ROCK      CLEAR     70  67  90 NE3       30.01S
MINERAL POINT  CLEAR     70  70 100 S3        30.04S
MADISON        CLEAR     74  68  81 CALM      30.03R
MIDDLETON      CLEAR     70  68  92 CALM      30.04R
WATERTOWN      CLEAR     69  69 100 CALM      30.03R
MONROE         CLEAR     70  64  83 NW6       30.04R
JANESVILLE     PTCLDY    75  70  83 CALM      30.02F
$$

WIZ051-052-058>065-066-070>072-210300-
SOUTHEAST WISCONSIN

CITY           SKY/WX    TMP DP  RH WIND       PRES   REMARKS
MILWAUKEE      PTCLDY    75  65  70 CALM      30.03R
WAUKESHA       CLEAR     72  66  83 SE5       30.04R
MILWAUKEE/TIMM CLEAR     75  64  69 S7        30.03R
RACINE         CLOUDY    74  67  78 CALM      30.05R
KENOSHA        CLOUDY    73  67  81 W3        30.04R
FOND DU LAC    CLEAR     73  66  78 SW3       30.02R
SHEBOYGAN      CLEAR     71  70  96 CALM      30.02R
WEST BEND      CLEAR     68  68 100 CALM      30.03R
JUNEAU         CLEAR     71  67  89 CALM      30.04R
$$

LSZ147-162-210300-
LAKE SUPERIOR

STATION/POSITION TIME  TEMP    WIND        PRES    WAVE
                       AIR SEA DIR/SP/G            HT/PER
                 (UTC) (F)     (DEG/KT/KT) (MB)    (FT/S)
W MID LAKE BUOY  0050   65 60  260/ 10/ 14 1012.1R   1/ 4
DEVILS ISLAND    0200   69     270/ 15/ 16 1014.4R
SAXON HARBOR     0130   71     210/  4/  6 1013.9R
$$

LMZ867-665-643>646-210300-
LAKE MICHIGAN

STATION/POSITION TIME  TEMP    WIND        PRES    WAVE
                       AIR SEA DIR/SP/G            HT/PER
                 (UTC) (F)     (DEG/KT/KT) (MB)    (FT/S)
S GREEN BAY BUOY 0200   74 72  210/  8/ 10 1014.7
N MID LAKE BUOY  0150   69 67  200/ 17/ 19 1014.7R   4/ 5
NORTHPORT PIER   0140   71     170/  4/  8 1014.2R
KEWAUNEE LAKESHO 0154   74     200/  9/ 11 1014.7R
SHEBOYGAN LAKESH 0200   73     190/  4/  4 1015.9R
PORT WASHINGTON  0140   73      CALM  /  4 1016.9R
ATWATER BUOY     0109   72 70  170/  4/  6 1016.6R
MILWAUKEE LAKESH 0200   77     190/  5/  5   N/A
S MID LAKE BUOY  0050   74 72  110/  6/  8 1016.2R   1
KENOSHA   LAKESH 0200   77     250/  6/  8 1016.6
$$

TC  - TEMPERATURE IN CELSIUS
VSB - VISIBILITY IN STATUTE MILES
WCI - WIND CHILL INDEX
HX  - HEAT INDEX





USA.gov is the U.S. government's official web portal to all federal, state and local government web resources and services.